Year,Month,Day,Hour,Minute,Value (Times are PST for temperature in C)
2008,10,11,00,00,3.40
2008,10,11,00,01,3.40
2008,10,11,00,02,3.40
2008,10,11,00,03,3.40
2008,10,11,00,04,3.40
2008,10,11,00,05,3.40
2008,10,11,00,06,3.40
2008,10,11,00,07,3.40
2008,10,11,00,08,3.30
2008,10,11,00,09,3.30
2008,10,11,00,10,3.30
2008,10,11,00,11,3.30
2008,10,11,00,12,3.30
2008,10,11,00,13,3.30
2008,10,11,00,14,3.30
2008,10,11,00,15,3.30
2008,10,11,00,16,3.20
2008,10,11,00,17,3.20
2008,10,11,00,18,3.20
2008,10,11,00,19,3.20
2008,10,11,00,20,3.20
2008,10,11,00,21,3.10
2008,10,11,00,22,3.10
2008,10,11,00,23,3.10
2008,10,11,00,24,3.10
2008,10,11,00,25,3.10
2008,10,11,00,26,3.10
2008,10,11,00,27,3.10
2008,10,11,00,28,3.10
2008,10,11,00,29,3.10
2008,10,11,00,30,3.10
2008,10,11,00,31,3.10
2008,10,11,00,32,3.10
2008,10,11,00,33,3.10
2008,10,11,00,34,3.00
2008,10,11,00,35,3.00
2008,10,11,00,36,3.00
2008,10,11,00,37,3.00
2008,10,11,00,38,3.00
2008,10,11,00,39,3.00
2008,10,11,00,40,3.00
2008,10,11,00,41,3.00
2008,10,11,00,42,3.00
2008,10,11,00,43,3.00
2008,10,11,00,44,3.00
2008,10,11,00,45,3.00
2008,10,11,00,46,3.00
2008,10,11,00,47,2.90
2008,10,11,00,48,2.90
2008,10,11,00,49,2.90
2008,10,11,00,50,2.90
2008,10,11,00,51,2.90
2008,10,11,00,52,2.90
2008,10,11,00,53,2.80
2008,10,11,00,54,2.80
2008,10,11,00,55,2.80
2008,10,11,00,56,2.80
2008,10,11,00,57,2.80
2008,10,11,00,58,2.80
2008,10,11,00,59,2.80
2008,10,11,01,00,2.80
2008,10,11,01,01,2.70
2008,10,11,01,02,2.70
2008,10,11,01,03,2.70
2008,10,11,01,04,2.70
2008,10,11,01,05,2.70
2008,10,11,01,06,2.70
2008,10,11,01,07,2.70
2008,10,11,01,08,2.70
2008,10,11,01,09,2.70
2008,10,11,01,10,2.70
2008,10,11,01,11,2.70
2008,10,11,01,12,2.70
2008,10,11,01,13,2.60
2008,10,11,01,14,2.60
2008,10,11,01,15,2.60
2008,10,11,01,16,2.60
2008,10,11,01,17,2.60
2008,10,11,01,18,2.60
2008,10,11,01,19,2.60
2008,10,11,01,20,2.60
2008,10,11,01,21,2.50
2008,10,11,01,22,2.50
2008,10,11,01,23,2.50
2008,10,11,01,24,2.50
2008,10,11,01,25,2.40
2008,10,11,01,26,2.40
2008,10,11,01,27,2.40
2008,10,11,01,28,2.40
2008,10,11,01,29,2.40
2008,10,11,01,30,2.40
2008,10,11,01,31,2.40
2008,10,11,01,32,2.40
2008,10,11,01,33,2.40
2008,10,11,01,34,2.40
2008,10,11,01,35,2.40
2008,10,11,01,36,2.40
2008,10,11,01,37,2.40
2008,10,11,01,38,2.40
2008,10,11,01,39,2.40
2008,10,11,01,40,2.40
2008,10,11,01,41,2.40
2008,10,11,01,42,2.40
2008,10,11,01,43,2.40
2008,10,11,01,44,2.40
2008,10,11,01,45,2.40
2008,10,11,01,46,2.40
2008,10,11,01,47,2.30
2008,10,11,01,48,2.40
2008,10,11,01,49,2.40
2008,10,11,01,50,2.40
2008,10,11,01,51,2.40
2008,10,11,01,52,2.40
2008,10,11,01,53,2.40
2008,10,11,01,54,2.40
2008,10,11,01,55,2.40
2008,10,11,01,56,2.40
2008,10,11,01,57,2.40
2008,10,11,01,58,2.40
2008,10,11,01,59,2.40
2008,10,11,02,00,2.40
2008,10,11,02,01,2.30
2008,10,11,02,02,2.30
2008,10,11,02,03,2.30
2008,10,11,02,04,2.30
2008,10,11,02,05,2.30
2008,10,11,02,06,2.30
2008,10,11,02,07,2.30
2008,10,11,02,08,2.20
2008,10,11,02,09,2.20
2008,10,11,02,10,2.20
2008,10,11,02,11,2.20
2008,10,11,02,12,2.20
2008,10,11,02,13,2.10
2008,10,11,02,14,2.10
2008,10,11,02,15,2.10
2008,10,11,02,16,2.10
2008,10,11,02,17,2.10
2008,10,11,02,18,2.10
2008,10,11,02,19,2.10
2008,10,11,02,20,2.00
2008,10,11,02,21,2.00
2008,10,11,02,22,2.00
2008,10,11,02,23,1.90
2008,10,11,02,24,1.90
2008,10,11,02,25,1.90
2008,10,11,02,26,1.90
2008,10,11,02,27,1.90
2008,10,11,02,28,1.90
2008,10,11,02,29,1.90
2008,10,11,02,30,1.80
2008,10,11,02,31,1.80
2008,10,11,02,32,1.80
2008,10,11,02,33,1.80
2008,10,11,02,34,1.80
2008,10,11,02,35,1.80
2008,10,11,02,36,1.80
2008,10,11,02,37,1.80
2008,10,11,02,38,1.80
2008,10,11,02,39,1.80
2008,10,11,02,40,1.80
2008,10,11,02,41,1.70
2008,10,11,02,42,1.70
2008,10,11,02,43,1.70
2008,10,11,02,44,1.70
2008,10,11,02,45,1.70
2008,10,11,02,46,1.70
2008,10,11,02,47,1.60
2008,10,11,02,48,1.60
2008,10,11,02,49,1.60
2008,10,11,02,50,1.60
2008,10,11,02,51,1.60
2008,10,11,02,52,1.50
2008,10,11,02,53,1.50
2008,10,11,02,54,1.50
2008,10,11,02,55,1.50
2008,10,11,02,56,1.40
2008,10,11,02,57,1.40
2008,10,11,02,58,1.50
2008,10,11,02,59,1.50
2008,10,11,03,00,1.50
2008,10,11,03,01,1.50
2008,10,11,03,02,1.60
2008,10,11,03,03,1.60
2008,10,11,03,04,1.60
2008,10,11,03,05,1.60
2008,10,11,03,06,1.70
2008,10,11,03,07,1.70
2008,10,11,03,08,1.70
2008,10,11,03,09,1.70
2008,10,11,03,10,1.70
2008,10,11,03,11,1.70
2008,10,11,03,12,1.70
2008,10,11,03,13,1.60
2008,10,11,03,14,1.60
2008,10,11,03,15,1.60
2008,10,11,03,16,1.60
2008,10,11,03,17,1.60
2008,10,11,03,18,1.60
2008,10,11,03,19,1.60
2008,10,11,03,20,1.60
2008,10,11,03,21,1.50
2008,10,11,03,22,1.50
2008,10,11,03,23,1.60
2008,10,11,03,24,1.50
2008,10,11,03,25,1.50
2008,10,11,03,26,1.50
2008,10,11,03,27,1.50
2008,10,11,03,28,1.50
2008,10,11,03,29,1.50
2008,10,11,03,30,1.50
2008,10,11,03,31,1.50
2008,10,11,03,32,1.40
2008,10,11,03,33,1.40
2008,10,11,03,34,1.40
2008,10,11,03,35,1.50
2008,10,11,03,36,1.50
2008,10,11,03,37,1.50
2008,10,11,03,38,1.50
2008,10,11,03,39,1.40
2008,10,11,03,40,1.40
2008,10,11,03,41,1.40
2008,10,11,03,42,1.40
2008,10,11,03,43,1.40
2008,10,11,03,44,1.40
2008,10,11,03,45,1.40
2008,10,11,03,46,1.40
2008,10,11,03,47,1.40
2008,10,11,03,48,1.40
2008,10,11,03,49,1.30
2008,10,11,03,50,1.30
2008,10,11,03,51,1.30
2008,10,11,03,52,1.30
2008,10,11,03,53,1.30
2008,10,11,03,54,1.30
2008,10,11,03,55,1.30
2008,10,11,03,56,1.30
2008,10,11,03,57,1.30
2008,10,11,03,58,1.30
2008,10,11,03,59,1.30
2008,10,11,04,00,1.30
2008,10,11,04,01,1.30
2008,10,11,04,02,1.30
2008,10,11,04,03,1.30
2008,10,11,04,04,1.30
2008,10,11,04,05,1.30
2008,10,11,04,06,1.30
2008,10,11,04,07,1.30
2008,10,11,04,08,1.30
2008,10,11,04,09,1.30
2008,10,11,04,10,1.30
2008,10,11,04,11,1.20
2008,10,11,04,12,1.20
2008,10,11,04,13,1.20
2008,10,11,04,14,1.20
2008,10,11,04,15,1.20
2008,10,11,04,16,1.20
2008,10,11,04,17,1.10
2008,10,11,04,18,1.10
2008,10,11,04,19,1.10
2008,10,11,04,20,1.10
2008,10,11,04,21,1.10
2008,10,11,04,22,1.10
2008,10,11,04,23,1.10
2008,10,11,04,24,1.10
2008,10,11,04,25,1.10
2008,10,11,04,26,1.10
2008,10,11,04,27,1.10
2008,10,11,04,28,1.10
2008,10,11,04,29,1.10
2008,10,11,04,30,1.10
2008,10,11,04,31,1.10
2008,10,11,04,32,1.10
2008,10,11,04,33,1.20
2008,10,11,04,34,1.20
2008,10,11,04,35,1.10
2008,10,11,04,36,1.10
2008,10,11,04,37,1.10
2008,10,11,04,38,1.10
2008,10,11,04,39,1.10
2008,10,11,04,40,1.10
2008,10,11,04,41,1.10
2008,10,11,04,42,1.00
2008,10,11,04,43,1.00
2008,10,11,04,44,1.00
2008,10,11,04,45,1.00
2008,10,11,04,46,1.00
2008,10,11,04,47,1.00
2008,10,11,04,48,1.00
2008,10,11,04,49,1.00
2008,10,11,04,50,1.00
2008,10,11,04,51,1.00
2008,10,11,04,52,1.00
2008,10,11,04,53,1.00
2008,10,11,04,54,1.00
2008,10,11,04,55,1.00
2008,10,11,04,56,1.00
2008,10,11,04,57,1.00
2008,10,11,04,58,1.00
2008,10,11,04,59,1.00
2008,10,11,05,00,1.00
2008,10,11,05,01,0.90
2008,10,11,05,02,0.90
2008,10,11,05,03,0.90
2008,10,11,05,04,1.00
2008,10,11,05,05,1.00
2008,10,11,05,06,1.00
2008,10,11,05,07,1.00
2008,10,11,05,08,0.90
2008,10,11,05,09,0.90
2008,10,11,05,10,0.90
2008,10,11,05,11,0.90
2008,10,11,05,12,0.90
2008,10,11,05,13,0.90
2008,10,11,05,14,0.90
2008,10,11,05,15,0.90
2008,10,11,05,16,0.90
2008,10,11,05,17,0.90
2008,10,11,05,18,0.90
2008,10,11,05,19,0.90
2008,10,11,05,20,0.90
2008,10,11,05,21,0.80
2008,10,11,05,22,0.80
2008,10,11,05,23,0.80
2008,10,11,05,24,0.80
2008,10,11,05,25,0.80
2008,10,11,05,26,0.80
2008,10,11,05,27,0.80
2008,10,11,05,28,0.80
2008,10,11,05,29,0.80
2008,10,11,05,30,0.80
2008,10,11,05,31,0.80
2008,10,11,05,32,0.80
2008,10,11,05,33,0.80
2008,10,11,05,34,0.80
2008,10,11,05,35,0.80
2008,10,11,05,36,0.90
2008,10,11,05,37,0.90
2008,10,11,05,38,0.90
2008,10,11,05,39,1.00
2008,10,11,05,40,1.00
2008,10,11,05,41,1.00
2008,10,11,05,42,1.00
2008,10,11,05,43,1.10
2008,10,11,05,44,1.10
2008,10,11,05,45,1.10
2008,10,11,05,46,1.10
2008,10,11,05,47,1.10
2008,10,11,05,48,1.10
2008,10,11,05,49,1.10
2008,10,11,05,50,1.10
2008,10,11,05,51,1.00
2008,10,11,05,52,1.10
2008,10,11,05,53,1.10
2008,10,11,05,54,1.10
2008,10,11,05,55,1.10
2008,10,11,05,56,1.10
2008,10,11,05,57,1.10
2008,10,11,05,58,1.10
2008,10,11,05,59,1.20
2008,10,11,06,00,1.20
2008,10,11,06,01,1.30
2008,10,11,06,02,1.30
2008,10,11,06,03,1.30
2008,10,11,06,04,1.30
2008,10,11,06,05,1.30
2008,10,11,06,06,1.30
2008,10,11,06,07,1.40
2008,10,11,06,08,1.40
2008,10,11,06,09,1.40
2008,10,11,06,10,1.40
2008,10,11,06,11,1.40
2008,10,11,06,12,1.40
2008,10,11,06,13,1.40
2008,10,11,06,14,1.40
2008,10,11,06,15,1.40
2008,10,11,06,16,1.30
2008,10,11,06,17,1.30
2008,10,11,06,18,1.30
2008,10,11,06,19,1.30
2008,10,11,06,20,1.30
2008,10,11,06,21,1.30
2008,10,11,06,22,1.30
2008,10,11,06,23,1.30
2008,10,11,06,24,1.30
2008,10,11,06,25,1.20
2008,10,11,06,26,1.20
2008,10,11,06,27,1.20
2008,10,11,06,28,1.30
2008,10,11,06,29,1.20
2008,10,11,06,30,1.20
2008,10,11,06,31,1.20
2008,10,11,06,32,1.20
2008,10,11,06,33,1.20
2008,10,11,06,34,1.20
2008,10,11,06,35,1.20
2008,10,11,06,36,1.20
2008,10,11,06,37,1.20
2008,10,11,06,38,1.20
2008,10,11,06,39,1.20
2008,10,11,06,40,1.20
2008,10,11,06,41,1.20
2008,10,11,06,42,1.20
2008,10,11,06,43,1.20
2008,10,11,06,44,1.20
2008,10,11,06,45,1.30
2008,10,11,06,46,1.30
2008,10,11,06,47,1.30
2008,10,11,06,48,1.30
2008,10,11,06,49,1.30
2008,10,11,06,50,1.30
2008,10,11,06,51,1.30
2008,10,11,06,52,1.30
2008,10,11,06,53,1.30
2008,10,11,06,54,1.30
2008,10,11,06,55,1.30
2008,10,11,06,56,1.30
2008,10,11,06,57,1.20
2008,10,11,06,58,1.20
2008,10,11,06,59,1.20
2008,10,11,07,00,1.20
2008,10,11,07,01,1.30
2008,10,11,07,02,1.30
2008,10,11,07,03,1.30
2008,10,11,07,04,1.30
2008,10,11,07,05,1.30
2008,10,11,07,06,1.30
2008,10,11,07,07,1.30
2008,10,11,07,08,1.30
2008,10,11,07,09,1.30
2008,10,11,07,10,1.30
2008,10,11,07,11,1.30
2008,10,11,07,12,1.30
2008,10,11,07,13,1.30
2008,10,11,07,14,1.30
2008,10,11,07,15,1.30
2008,10,11,07,16,1.30
2008,10,11,07,17,1.30
2008,10,11,07,18,1.30
2008,10,11,07,19,1.30
2008,10,11,07,20,1.30
2008,10,11,07,21,1.30
2008,10,11,07,22,1.30
2008,10,11,07,23,1.30
2008,10,11,07,24,1.40
2008,10,11,07,25,1.40
2008,10,11,07,26,1.50
2008,10,11,07,27,1.50
2008,10,11,07,28,1.60
2008,10,11,07,29,1.60
2008,10,11,07,30,1.60
2008,10,11,07,31,1.60
2008,10,11,07,32,1.60
2008,10,11,07,33,1.70
2008,10,11,07,34,1.70
2008,10,11,07,35,1.70
2008,10,11,07,36,1.70
2008,10,11,07,37,1.60
2008,10,11,07,38,1.60
2008,10,11,07,39,1.60
2008,10,11,07,40,1.60
2008,10,11,07,41,1.60
2008,10,11,07,42,1.60
2008,10,11,07,43,1.60
2008,10,11,07,44,1.60
2008,10,11,07,45,1.60
2008,10,11,07,46,1.60
2008,10,11,07,47,1.60
2008,10,11,07,48,1.60
2008,10,11,07,49,1.60
2008,10,11,07,50,1.60
2008,10,11,07,51,1.70
2008,10,11,07,52,1.70
2008,10,11,07,53,1.70
2008,10,11,07,54,1.70
2008,10,11,07,55,1.80
2008,10,11,07,56,1.80
2008,10,11,07,57,1.80
2008,10,11,07,58,1.80
2008,10,11,07,59,1.80
2008,10,11,08,00,1.80
2008,10,11,08,01,1.90
2008,10,11,08,02,1.90
2008,10,11,08,03,1.90
2008,10,11,08,04,1.90
2008,10,11,08,05,1.90
2008,10,11,08,06,2.00
2008,10,11,08,07,2.00
2008,10,11,08,08,2.10
2008,10,11,08,09,2.10
2008,10,11,08,10,2.10
2008,10,11,08,11,2.10
2008,10,11,08,12,2.10
2008,10,11,08,13,2.20
2008,10,11,08,14,2.20
2008,10,11,08,15,2.20
2008,10,11,08,16,2.20
2008,10,11,08,17,2.20
2008,10,11,08,18,2.20
2008,10,11,08,19,2.20
2008,10,11,08,20,2.20
2008,10,11,08,21,2.30
2008,10,11,08,22,2.30
2008,10,11,08,23,2.30
2008,10,11,08,24,2.30
2008,10,11,08,25,2.30
2008,10,11,08,26,2.30
2008,10,11,08,27,2.30
2008,10,11,08,28,2.30
2008,10,11,08,29,2.30
2008,10,11,08,30,2.40
2008,10,11,08,31,2.40
2008,10,11,08,32,2.50
2008,10,11,08,33,2.60
2008,10,11,08,34,2.60
2008,10,11,08,35,2.60
2008,10,11,08,36,2.70
2008,10,11,08,37,2.70
2008,10,11,08,38,2.80
2008,10,11,08,39,2.80
2008,10,11,08,40,2.80
2008,10,11,08,41,2.90
2008,10,11,08,42,2.90
2008,10,11,08,43,3.00
2008,10,11,08,44,3.00
2008,10,11,08,45,3.10
2008,10,11,08,46,3.20
2008,10,11,08,47,3.20
2008,10,11,08,48,3.30
2008,10,11,08,49,3.30
2008,10,11,08,50,3.40
2008,10,11,08,51,3.40
2008,10,11,08,52,3.50
2008,10,11,08,53,3.50
2008,10,11,08,54,3.60
2008,10,11,08,55,3.70
2008,10,11,08,56,3.80
2008,10,11,08,57,3.90
2008,10,11,08,58,4.00
2008,10,11,08,59,4.10
2008,10,11,09,00,4.20
2008,10,11,09,01,4.20
2008,10,11,09,02,4.30
2008,10,11,09,03,4.40
2008,10,11,09,04,4.50
2008,10,11,09,05,4.60
2008,10,11,09,06,4.70
2008,10,11,09,07,4.80
2008,10,11,09,08,4.90
2008,10,11,09,09,5.00
2008,10,11,09,10,5.10
2008,10,11,09,11,5.20
2008,10,11,09,12,5.20
2008,10,11,09,13,5.20
2008,10,11,09,14,5.40
2008,10,11,09,15,5.40
2008,10,11,09,16,5.60
2008,10,11,09,17,5.70
2008,10,11,09,18,5.80
2008,10,11,09,19,5.90
2008,10,11,09,20,6.00
2008,10,11,09,21,6.10
2008,10,11,09,22,6.20
2008,10,11,09,23,6.30
2008,10,11,09,24,6.50
2008,10,11,09,25,6.60
2008,10,11,09,26,6.70
2008,10,11,09,27,6.80
2008,10,11,09,28,6.90
2008,10,11,09,29,7.00
2008,10,11,09,30,7.10
2008,10,11,09,31,7.20
2008,10,11,09,32,7.30
2008,10,11,09,33,7.40
2008,10,11,09,34,7.50
2008,10,11,09,35,7.60
2008,10,11,09,36,7.70
2008,10,11,09,37,7.80
2008,10,11,09,38,7.90
2008,10,11,09,39,8.00
2008,10,11,09,40,8.10
2008,10,11,09,41,8.20
2008,10,11,09,42,8.30
2008,10,11,09,43,8.40
2008,10,11,09,44,8.40
2008,10,11,09,45,8.50
2008,10,11,09,46,8.60
2008,10,11,09,47,8.70
2008,10,11,09,48,8.80
2008,10,11,09,49,8.90
2008,10,11,09,50,9.00
2008,10,11,09,51,9.10
2008,10,11,09,52,9.20
2008,10,11,09,53,9.30
2008,10,11,09,54,9.40
2008,10,11,09,55,9.40
2008,10,11,09,56,9.50
2008,10,11,09,57,9.60
2008,10,11,09,58,9.70
2008,10,11,09,59,9.80
2008,10,11,10,00,9.80
2008,10,11,10,01,9.90
2008,10,11,10,02,10.00
2008,10,11,10,03,10.10
2008,10,11,10,04,10.20
2008,10,11,10,05,10.20
2008,10,11,10,06,10.30
2008,10,11,10,07,10.30
2008,10,11,10,08,10.40
2008,10,11,10,09,10.40
2008,10,11,10,10,10.40
2008,10,11,10,11,10.40
2008,10,11,10,12,10.40
2008,10,11,10,13,10.50
2008,10,11,10,14,10.50
2008,10,11,10,15,10.50
2008,10,11,10,16,10.50
2008,10,11,10,17,10.50
2008,10,11,10,18,10.50
2008,10,11,10,19,10.50
2008,10,11,10,20,10.50
2008,10,11,10,21,10.50
2008,10,11,10,22,10.50
2008,10,11,10,23,10.50
2008,10,11,10,24,10.50
2008,10,11,10,25,10.50
2008,10,11,10,26,10.50
2008,10,11,10,27,10.50
2008,10,11,10,28,10.60
2008,10,11,10,29,10.60
2008,10,11,10,30,10.60
2008,10,11,10,31,10.60
2008,10,11,10,32,10.60
2008,10,11,10,33,10.60
2008,10,11,10,34,10.60
2008,10,11,10,35,10.70
2008,10,11,10,36,10.60
2008,10,11,10,37,10.60
2008,10,11,10,38,10.60
2008,10,11,10,39,10.60
2008,10,11,10,40,10.60
2008,10,11,10,41,10.60
2008,10,11,10,42,10.70
2008,10,11,10,43,10.70
2008,10,11,10,44,10.80
2008,10,11,10,45,10.80
2008,10,11,10,46,10.80
2008,10,11,10,47,10.90
2008,10,11,10,48,11.00
2008,10,11,10,49,11.00
2008,10,11,10,50,11.10
2008,10,11,10,51,11.10
2008,10,11,10,52,11.10
2008,10,11,10,53,11.10
2008,10,11,10,54,11.00
2008,10,11,10,55,11.00
2008,10,11,10,56,10.90
2008,10,11,10,57,10.90
2008,10,11,10,58,10.90
2008,10,11,10,59,10.90
2008,10,11,11,00,10.90
2008,10,11,11,01,10.90
2008,10,11,11,02,10.90
2008,10,11,11,03,10.90
2008,10,11,11,04,10.90
2008,10,11,11,05,10.90
2008,10,11,11,06,10.90
2008,10,11,11,07,10.90
2008,10,11,11,08,10.90
2008,10,11,11,09,10.90
2008,10,11,11,10,10.90
2008,10,11,11,11,10.90
2008,10,11,11,12,10.90
2008,10,11,11,13,10.90
2008,10,11,11,14,10.90
2008,10,11,11,15,10.90
2008,10,11,11,16,10.90
2008,10,11,11,17,10.90
2008,10,11,11,18,10.80
2008,10,11,11,19,10.80
2008,10,11,11,20,10.80
2008,10,11,11,21,10.80
2008,10,11,11,22,10.70
2008,10,11,11,23,10.70
2008,10,11,11,24,10.60
2008,10,11,11,25,10.60
2008,10,11,11,26,10.60
2008,10,11,11,27,10.60
2008,10,11,11,28,10.60
2008,10,11,11,29,10.70
2008,10,11,11,30,10.70
2008,10,11,11,31,10.70
2008,10,11,11,32,10.70
2008,10,11,11,33,10.70
2008,10,11,11,34,10.70
2008,10,11,11,35,10.70
2008,10,11,11,36,10.70
2008,10,11,11,37,10.60
2008,10,11,11,38,10.60
2008,10,11,11,39,10.60
2008,10,11,11,40,10.60
2008,10,11,11,41,10.60
2008,10,11,11,42,10.70
2008,10,11,11,43,10.70
2008,10,11,11,44,10.70
2008,10,11,11,45,10.70
2008,10,11,11,46,10.70
2008,10,11,11,47,10.60
2008,10,11,11,48,10.60
2008,10,11,11,49,10.60
2008,10,11,11,50,10.60
2008,10,11,11,51,10.60
2008,10,11,11,52,10.60
2008,10,11,11,53,10.70
2008,10,11,11,54,10.80
2008,10,11,11,55,10.90
2008,10,11,11,56,10.90
2008,10,11,11,57,11.00
2008,10,11,11,58,11.00
2008,10,11,11,59,11.10
2008,10,11,12,00,11.10
2008,10,11,12,01,11.20
2008,10,11,12,02,11.20
2008,10,11,12,03,11.30
2008,10,11,12,04,11.40
2008,10,11,12,05,11.40
2008,10,11,12,06,11.50
2008,10,11,12,07,11.60
2008,10,11,12,08,11.70
2008,10,11,12,09,11.80
2008,10,11,12,10,11.90
2008,10,11,12,11,11.90
2008,10,11,12,12,12.00
2008,10,11,12,13,12.10
2008,10,11,12,14,12.20
2008,10,11,12,15,12.30
2008,10,11,12,16,12.30
2008,10,11,12,17,12.40
2008,10,11,12,18,12.40
2008,10,11,12,19,12.50
2008,10,11,12,20,12.50
2008,10,11,12,21,12.60
2008,10,11,12,22,12.60
2008,10,11,12,23,12.70
2008,10,11,12,24,12.70
2008,10,11,12,25,12.70
2008,10,11,12,26,12.80
2008,10,11,12,27,12.80
2008,10,11,12,28,12.80
2008,10,11,12,29,12.80
2008,10,11,12,30,12.80
2008,10,11,12,31,12.90
2008,10,11,12,32,12.90
2008,10,11,12,33,13.00
2008,10,11,12,34,13.00
2008,10,11,12,35,13.00
2008,10,11,12,36,13.00
2008,10,11,12,37,13.00
2008,10,11,12,38,12.90
2008,10,11,12,39,12.80
2008,10,11,12,40,12.80
2008,10,11,12,41,12.70
2008,10,11,12,42,12.60
2008,10,11,12,43,12.50
2008,10,11,12,44,12.40
2008,10,11,12,45,12.40
2008,10,11,12,46,12.40
2008,10,11,12,47,12.40
2008,10,11,12,48,12.40
2008,10,11,12,49,12.50
2008,10,11,12,50,12.50
2008,10,11,12,51,12.50
2008,10,11,12,52,12.60
2008,10,11,12,53,12.60
2008,10,11,12,54,12.60
2008,10,11,12,55,12.60
2008,10,11,12,56,12.50
2008,10,11,12,57,12.50
2008,10,11,12,58,12.50
2008,10,11,12,59,12.50
2008,10,11,13,00,12.50
2008,10,11,13,01,12.50
2008,10,11,13,02,12.40
2008,10,11,13,03,12.30
2008,10,11,13,04,12.30
2008,10,11,13,05,12.30
2008,10,11,13,06,12.30
2008,10,11,13,07,12.30
2008,10,11,13,08,12.30
2008,10,11,13,09,12.30
2008,10,11,13,10,12.30
2008,10,11,13,11,12.30
2008,10,11,13,12,12.30
2008,10,11,13,13,12.30
2008,10,11,13,14,12.20
2008,10,11,13,15,12.30
2008,10,11,13,16,12.20
2008,10,11,13,17,12.10
2008,10,11,13,18,12.00
2008,10,11,13,19,11.90
2008,10,11,13,20,11.90
2008,10,11,13,21,11.80
2008,10,11,13,22,11.80
2008,10,11,13,23,11.80
2008,10,11,13,24,11.80
2008,10,11,13,25,11.80
2008,10,11,13,26,11.80
2008,10,11,13,27,11.80
2008,10,11,13,28,11.70
2008,10,11,13,29,11.70
2008,10,11,13,30,11.60
2008,10,11,13,31,11.60
2008,10,11,13,32,11.60
2008,10,11,13,33,11.70
2008,10,11,13,34,11.70
2008,10,11,13,35,11.80
2008,10,11,13,36,11.80
2008,10,11,13,37,11.80
2008,10,11,13,38,11.80
2008,10,11,13,39,11.90
2008,10,11,13,40,12.00
2008,10,11,13,41,12.00
2008,10,11,13,42,12.00
2008,10,11,13,43,12.00
2008,10,11,13,44,11.90
2008,10,11,13,45,11.90
2008,10,11,13,46,11.90
2008,10,11,13,47,11.80
2008,10,11,13,48,11.80
2008,10,11,13,49,11.80
2008,10,11,13,50,11.80
2008,10,11,13,51,11.80
2008,10,11,13,52,11.80
2008,10,11,13,53,11.90
2008,10,11,13,54,11.90
2008,10,11,13,55,11.90
2008,10,11,13,56,12.00
2008,10,11,13,57,12.00
2008,10,11,13,58,12.00
2008,10,11,13,59,12.10
2008,10,11,14,00,12.10
2008,10,11,14,01,12.10
2008,10,11,14,02,12.00
2008,10,11,14,03,11.90
2008,10,11,14,04,11.90
2008,10,11,14,05,11.80
2008,10,11,14,06,11.80
2008,10,11,14,07,11.80
2008,10,11,14,08,11.80
2008,10,11,14,09,11.80
2008,10,11,14,10,11.80
2008,10,11,14,11,11.80
2008,10,11,14,12,11.80
2008,10,11,14,13,11.80
2008,10,11,14,14,11.90
2008,10,11,14,15,11.90
2008,10,11,14,16,11.90
2008,10,11,14,17,12.00
2008,10,11,14,18,12.10
2008,10,11,14,19,12.20
2008,10,11,14,20,12.20
2008,10,11,14,21,12.30
2008,10,11,14,22,12.30
2008,10,11,14,23,12.30
2008,10,11,14,24,12.40
2008,10,11,14,25,12.40
2008,10,11,14,26,12.30
2008,10,11,14,27,12.30
2008,10,11,14,28,12.20
2008,10,11,14,29,12.10
2008,10,11,14,30,12.10
2008,10,11,14,31,12.10
2008,10,11,14,32,12.10
2008,10,11,14,33,12.10
2008,10,11,14,34,12.10
2008,10,11,14,35,12.10
2008,10,11,14,36,12.00
2008,10,11,14,37,12.00
2008,10,11,14,38,11.90
2008,10,11,14,39,11.80
2008,10,11,14,40,11.80
2008,10,11,14,41,11.90
2008,10,11,14,42,11.90
2008,10,11,14,43,12.00
2008,10,11,14,44,12.10
2008,10,11,14,45,12.10
2008,10,11,14,46,12.20
2008,10,11,14,47,12.30
2008,10,11,14,48,12.30
2008,10,11,14,49,12.30
2008,10,11,14,50,12.40
2008,10,11,14,51,12.40
2008,10,11,14,52,12.30
2008,10,11,14,53,12.30
2008,10,11,14,54,12.30
2008,10,11,14,55,12.30
2008,10,11,14,56,12.30
2008,10,11,14,57,12.40
2008,10,11,14,58,12.40
2008,10,11,14,59,12.40
2008,10,11,15,00,12.40
2008,10,11,15,01,12.40
2008,10,11,15,02,12.30
2008,10,11,15,03,12.30
2008,10,11,15,04,12.30
2008,10,11,15,05,12.30
2008,10,11,15,06,12.30
2008,10,11,15,07,12.30
2008,10,11,15,08,12.30
2008,10,11,15,09,12.40
2008,10,11,15,10,12.40
2008,10,11,15,11,12.50
2008,10,11,15,12,12.50
2008,10,11,15,13,12.60
2008,10,11,15,14,12.60
2008,10,11,15,15,12.70
2008,10,11,15,16,12.60
2008,10,11,15,17,12.60
2008,10,11,15,18,12.60
2008,10,11,15,19,12.60
2008,10,11,15,20,12.60
2008,10,11,15,21,12.60
2008,10,11,15,22,12.60
2008,10,11,15,23,12.70
2008,10,11,15,24,12.70
2008,10,11,15,25,12.70
2008,10,11,15,26,12.70
2008,10,11,15,27,12.70
2008,10,11,15,28,12.70
2008,10,11,15,29,12.70
2008,10,11,15,30,12.80
2008,10,11,15,31,12.80
2008,10,11,15,32,12.80
2008,10,11,15,33,12.80
2008,10,11,15,34,12.80
2008,10,11,15,35,12.80
2008,10,11,15,36,12.70
2008,10,11,15,37,12.70
2008,10,11,15,38,12.70
2008,10,11,15,39,12.70
2008,10,11,15,40,12.60
2008,10,11,15,41,12.60
2008,10,11,15,42,12.60
2008,10,11,15,43,12.60
2008,10,11,15,44,12.50
2008,10,11,15,45,12.50
2008,10,11,15,46,12.50
2008,10,11,15,47,12.40
2008,10,11,15,48,12.40
2008,10,11,15,49,12.40
2008,10,11,15,50,12.40
2008,10,11,15,51,12.40
2008,10,11,15,52,12.40
2008,10,11,15,53,12.40
2008,10,11,15,54,12.40
2008,10,11,15,55,12.40
2008,10,11,15,56,12.40
2008,10,11,15,57,12.40
2008,10,11,15,58,12.30
2008,10,11,15,59,12.30
2008,10,11,16,00,12.30
2008,10,11,16,01,12.30
2008,10,11,16,02,12.30
2008,10,11,16,03,12.30
2008,10,11,16,04,12.30
2008,10,11,16,05,12.30
2008,10,11,16,06,12.30
2008,10,11,16,07,12.30
2008,10,11,16,08,12.30
2008,10,11,16,09,12.30
2008,10,11,16,10,12.30
2008,10,11,16,11,12.30
2008,10,11,16,12,12.30
2008,10,11,16,13,12.30
2008,10,11,16,14,12.20
2008,10,11,16,15,12.20
2008,10,11,16,16,12.10
2008,10,11,16,17,12.10
2008,10,11,16,18,12.10
2008,10,11,16,19,12.10
2008,10,11,16,20,12.00
2008,10,11,16,21,11.90
2008,10,11,16,22,11.90
2008,10,11,16,23,11.90
2008,10,11,16,24,11.90
2008,10,11,16,25,11.90
2008,10,11,16,26,11.80
2008,10,11,16,27,11.80
2008,10,11,16,28,11.70
2008,10,11,16,29,11.70
2008,10,11,16,30,11.60
2008,10,11,16,31,11.60
2008,10,11,16,32,11.60
2008,10,11,16,33,11.60
2008,10,11,16,34,11.60
2008,10,11,16,35,11.60
2008,10,11,16,36,11.60
2008,10,11,16,37,11.60
2008,10,11,16,38,11.60
2008,10,11,16,39,11.50
2008,10,11,16,40,11.40
2008,10,11,16,41,11.40
2008,10,11,16,42,11.40
2008,10,11,16,43,11.40
2008,10,11,16,44,11.40
2008,10,11,16,45,11.40
2008,10,11,16,46,11.40
2008,10,11,16,47,11.40
2008,10,11,16,48,11.40
2008,10,11,16,49,11.40
2008,10,11,16,50,11.40
2008,10,11,16,51,11.40
2008,10,11,16,52,11.40
2008,10,11,16,53,11.40
2008,10,11,16,54,11.40
2008,10,11,16,55,11.40
2008,10,11,16,56,11.40
2008,10,11,16,57,11.40
2008,10,11,16,58,11.40
2008,10,11,16,59,11.40
2008,10,11,17,00,11.50
2008,10,11,17,01,11.50
2008,10,11,17,02,11.50
2008,10,11,17,03,11.50
2008,10,11,17,04,11.60
2008,10,11,17,05,11.60
2008,10,11,17,06,11.60
2008,10,11,17,07,11.60
2008,10,11,17,08,11.60
2008,10,11,17,09,11.70
2008,10,11,17,10,11.70
2008,10,11,17,11,11.60
2008,10,11,17,12,11.60
2008,10,11,17,13,11.70
2008,10,11,17,14,11.60
2008,10,11,17,15,11.60
2008,10,11,17,16,11.60
2008,10,11,17,17,11.60
2008,10,11,17,18,11.60
2008,10,11,17,19,11.60
2008,10,11,17,20,11.60
2008,10,11,17,21,11.70
2008,10,11,17,22,11.70
2008,10,11,17,23,11.70
2008,10,11,17,24,11.70
2008,10,11,17,25,11.60
2008,10,11,17,26,11.60
2008,10,11,17,27,11.60
2008,10,11,17,28,11.60
2008,10,11,17,29,11.60
2008,10,11,17,30,11.70
2008,10,11,17,31,11.70
2008,10,11,17,32,11.70
2008,10,11,17,33,11.70
2008,10,11,17,34,11.70
2008,10,11,17,35,11.70
2008,10,11,17,36,11.70
2008,10,11,17,37,11.70
2008,10,11,17,38,11.70
2008,10,11,17,39,11.80
2008,10,11,17,40,11.80
2008,10,11,17,41,11.80
2008,10,11,17,42,11.80
2008,10,11,17,43,11.80
2008,10,11,17,44,11.80
2008,10,11,17,45,11.80